Wind_Speed
40 40 40 40 40 41 43 44 44 43 43 41 41 39 36 36 38 37 34 36 38 37 37 36 34 31 31 33 36 36 35 37 37 36 38 40 39 38 38 36 35 37 41 43 44 46 47 48 47 47 46 46 45 44 44 44 45 47 47 46 46 47 47 47 48 48 45 42 43 45 44 42 42 43 45 47 47 45 44 41 37 36 38 41 40 37 37
43 42 42 42 43 43 44 44 45 45 44 43 43 42 38 37 38 38 38 39 39 38 38 39 38 36 34 35 37 38 38 38 38 39 41 42 42 41 41 39 35 34 36 39 41 43 44 45 47 47 47 47 47 47 45 44 45 46 47 48 49 50 50 50 51 51 50 48 46 46 46 45 44 44 44 45 44 42 43 43 42 42 41 41 43 42 41
42 43 42 43 44 44 44 44 45 46 45 44 44 42 41 40 40 39 40 42 40 39 40 41 41 40 41 42 42 41 41 40 40 41 41 39 41 42 41 39 38 36 35 36 38 39 40 41 43 45 45 46 46 46 46 45 45 46 47 48 50 51 51 52 53 53 52 52 51 51 50 50 49 49 48 47 44 41 41 42 44 44 43 43 45 46 45
43 43 42 42 43 44 46 46 46 46 46 46 45 43 42 42 41 40 40 42 41 40 40 42 43 43 44 44 43 40 40 40 41 43 41 40 41 42 41 41 40 40 39 38 38 38 38 39 41 42 43 44 45 45 46 47 48 49 49 50 51 52 52 53 54 54 53 53 53 54 55 55 55 56 56 55 54 51 47 45 44 44 44 45 47 48 48
44 43 42 43 44 46 48 47 44 43 43 44 44 44 42 41 41 40 41 41 40 39 40 41 41 42 43 44 44 43 43 43 44 46 46 45 44 44 44 43 43 44 43 42 40 39 39 40 41 42 43 44 45 45 46 47 48 50 52 53 52 52 52 52 53 54 54 55 55 56 56 56 57 58 58 58 57 55 52 49 47 46 45 45 47 48 49
44 43 43 44 46 49 49 44 40 39 40 41 41 42 41 40 38 38 40 41 41 41 42 41 40 41 42 44 46 46 44 44 46 46 46 48 48 47 45 45 47 48 48 46 43 42 41 42 42 42 43 44 44 45 46 47 48 50 53 54 55 55 55 54 53 53 52 52 53 53 53 53 53 54 55 55 54 53 52 51 50 50 49 49 50 50 51
46 45 45 47 48 47 45 42 40 41 41 40 41 41 41 42 40 39 40 41 42 42 43 43 42 42 44 47 49 49 47 47 49 47 46 48 51 51 52 51 52 52 51 48 47 46 45 44 43 44 44 44 44 45 46 46 47 49 51 53 55 57 58 58 58 57 56 55 54 53 53 53 52 52 53 54 55 55 55 55 55 55 55 55 55 55 56
47 46 46 48 47 44 42 41 42 44 42 41 42 43 44 45 45 44 43 44 45 46 45 45 45 44 44 45 47 50 49 48 49 49 48 49 50 52 53 53 53 54 52 49 48 48 47 46 45 45 45 45 45 46 46 47 47 48 50 52 53 55 56 58 58 59 60 59 58 58 58 57 56 56 56 57 58 59 59 59 60 60 59 59 60 60 60
44 45 45 46 45 45 45 45 44 44 42 41 43 46 46 46 46 47 47 48 48 48 48 49 49 49 46 43 44 47 47 45 47 49 51 51 50 50 52 52 53 55 53 51 50 50 49 48 47 47 47 47 47 47 48 48 49 49 50 51 53 54 55 55 56 57 57 57 57 57 57 58 58 58 59 59 59 60 61 61 61 61 62 62 62 62 62
43 44 44 45 46 45 45 45 42 41 41 39 40 43 44 45 46 47 47 47 47 48 48 48 49 50 48 43 42 44 44 45 47 49 50 51 50 51 53 53 54 54 52 51 51 51 50 50 49 49 49 49 49 49 49 50 50 51 52 52 53 54 55 55 55 55 56 56 56 56 56 56 56 57 57 57 58 58 59 59 59 60 60 61 61 60 59
42 43 44 44 45 44 45 44 42 42 44 42 39 40 42 45 47 48 47 46 46 46 47 47 47 48 46 42 41 42 43 47 50 48 47 48 49 50 51 51 51 51 50 49 50 51 51 51 51 50 50 50 50 50 50 50 51 52 53 53 54 55 55 55 55 55 55 56 56 56 56 55 56 56 56 56 56 56 56 56 56 57 58 59 58 56 55
42 43 44 44 45 46 47 46 44 44 45 43 40 39 42 45 47 47 46 46 46 46 47 47 46 46 44 43 44 45 45 47 49 49 47 47 48 49 49 49 49 50 48 47 48 49 49 49 50 50 51 51 50 50 50 50 51 52 52 53 53 54 55 55 55 54 55 55 55 55 55 55 55 56 56 56 55 55 55 55 55 55 56 57 55 53 52
42 42 44 44 44 46 47 47 46 46 46 44 42 41 42 45 48 47 46 46 47 46 46 47 47 45 45 45 46 45 45 46 48 49 49 48 48 49 48 48 49 49 47 47 47 47 48 49 50 50 50 51 50 50 50 50 50 51 51 51 52 52 53 54 54 54 54 53 53 53 53 54 54 54 55 55 55 55 55 54 54 54 54 54 53 53 52
42 42 43 44 45 45 46 47 46 46 44 44 43 43 43 46 49 49 48 48 48 48 47 48 48 47 47 47 46 45 46 47 49 50 49 48 48 49 49 49 50 50 49 48 48 48 49 50 50 51 51 52 51 51 51 50 50 50 50 50 50 51 52 52 53 53 52 52 52 52 52 53 53 53 54 54 54 54 54 53 52 53 53 52 52 53 52
41 42 42 44 45 45 44 45 45 44 44 44 44 45 46 48 49 49 49 49 50 50 49 50 50 50 50 50 50 50 49 48 49 50 50 50 50 50 50 51 51 51 50 49 49 50 50 51 51 52 52 52 52 52 51 50 50 50 50 50 50 50 50 51 52 52 51 51 52 52 52 52 53 53 53 53 53 53 53 52 52 52 53 52 52 52 51
39 41 41 42 42 41 41 42 42 42 44 46 48 48 48 48 49 49 49 49 50 50 51 51 50 50 50 50 51 52 51 50 50 51 51 52 52 52 52 52 52 52 51 50 50 51 51 52 52 52 53 53 52 52 51 51 50 50 50 50 49 49 49 49 50 51 50 50 51 52 51 52 52 53 53 53 52 51 51 51 52 53 52 51 51 51 51
37 38 39 39 40 40 40 40 40 42 45 48 49 48 47 47 48 49 48 48 49 50 51 50 49 49 49 50 50 51 51 51 51 52 52 52 53 53 52 52 53 53 51 51 51 52 52 52 53 53 53 53 53 52 52 51 51 50 50 50 49 48 48 48 49 49 49 49 50 50 51 51 51 52 52 51 50 50 51 51 52 52 51 50 50 50 50
37 37 37 38 39 40 40 40 41 44 46 46 46 47 47 47 48 49 48 48 49 51 51 50 50 49 49 49 50 50 51 51 51 52 52 52 53 53 53 53 54 53 52 52 52 52 52 53 53 53 54 53 53 53 52 52 51 51 50 48 47 47 47 47 48 48 48 48 48 49 50 51 51 52 51 51 50 50 50 50 50 50 50 49 49 49 49
36 36 37 38 40 40 41 41 43 44 45 45 46 48 48 48 49 49 49 49 50 52 53 52 52 51 51 51 51 51 52 52 52 53 53 53 53 54 54 54 55 54 53 53 53 53 53 53 53 54 54 54 54 53 52 52 52 51 49 48 48 47 46 46 47 48 48 48 49 50 51 51 51 51 51 51 50 49 49 49 49 49 49 48 48 49 48
36 37 37 39 40 41 42 43 43 44 46 47 47 48 49 49 49 50 50 50 51 52 54 54 54 53 53 53 52 52 53 53 54 54 54 53 54 54 55 55 55 55 54 54 54 54 54 54 54 55 55 55 55 54 53 52 52 52 51 50 50 49 48 47 48 49 50 50 50 51 51 50 50 51 51 51 50 50 50 50 50 50 50 49 49 48 48
38 38 39 40 41 42 43 44 44 45 47 47 47 48 49 50 50 50 51 51 52 53 54 54 55 55 54 54 54 54 54 54 55 55 55 55 55 56 56 56 57 56 56 55 56 56 56 56 56 57 56 56 55 55 54 53 52 52 52 51 50 50 49 49 49 50 50 51 51 51 51 51 50 51 51 51 51 52 51 51 51 51 50 48 47 46 45
39 39 40 41 42 42 42 42 43 45 46 47 46 46 47 47 48 49 49 49 50 51 53 54 55 55 55 55 56 56 55 55 56 56 57 57 58 58 58 58 58 57 57 57 57 57 56 57 58 58 57 56 56 56 55 54 53 53 53 52 52 51 50 51 51 51 51 52 52 52 52 52 51 51 51 51 51 51 50 49 48 47 45 43 41 40 38
39 39 40 41 41 40 40 40 40 41 43 43 43 42 42 41 42 43 44 45 45 46 48 49 51 53 53 54 55 55 55 56 57 57 58 59 60 60 60 59 59 59 58 58 58 58 58 58 59 58 57 57 57 56 55 55 54 54 53 52 52 52 51 51 51 51 52 52 52 52 52 52 51 50 50 49 48 46 45 43 41 39 37 35 33 33 32
35 36 39 39 37 36 35 35 36 36 37 37 36 34 33 33 33 34 35 36 38 40 41 42 44 47 48 48 49 51 52 53 54 55 56 57 58 59 59 59 59 59 59 59 59 59 59 59 59 59 58 58 57 56 56 55 55 54 53 52 51 51 51 51 51 50 50 49 48 49 48 47 46 45 43 41 38 36 34 33 32 31 30 29 29 30 31
32 32 33 33 32 31 30 29 28 29 29 29 27 24 24 24 26 27 28 29 32 35 36 36 36 38 39 39 40 42 44 45 46 48 49 51 52 53 54 55 56 56 57 57 58 58 58 59 58 58 58 57 57 57 57 56 55 54 52 51 50 49 48 47 45 43 42 41 40 40 38 36 36 35 32 28 26 26 26 26 26 26 25 24 25 26 27
31 29 27 26 24 24 23 22 21 21 21 21 20 18 18 19 21 23 24 25 26 27 27 27 26 25 26 27 29 31 33 34 35 37 38 39 40 42 44 45 46 47 49 50 50 50 51 51 52 52 53 52 52 52 51 51 51 50 49 48 45 42 40 38 35 32 30 29 28 27 26 26 25 23 21 20 21 21 21 21 22 24 24 22 21 21 22
27 26 23 20 18 17 16 16 16 16 17 18 17 16 16 17 18 18 18 19 19 19 19 19 18 18 18 20 22 23 24 24 25 26 27 27 28 30 32 33 34 35 36 36 35 35 37 38 40 41 41 40 40 40 40 41 41 40 39 37 34 31 29 28 26 24 23 22 21 20 20 20 20 19 18 18 20 20 19 18 19 21 22 23 21 18 18
22 20 17 14 13 12 13 13 14 15 16 17 17 16 15 15 15 15 15 16 17 17 17 17 18 18 18 20 21 21 21 20 19 18 18 18 19 20 21 22 23 23 22 22 22 24 25 26 26 26 24 24 25 27 29 30 29 28 27 27 25 24 23 22 22 22 21 20 19 19 19 19 20 21 20 19 20 19 19 20 20 20 21 22 20 17 16
15 14 12 11 10 11 12 12 13 14 14 15 15 15 14 14 15 16 16 16 17 17 17 18 19 18 18 18 18 18 16 15 14 13 13 13 13 13 13 13 13 13 13 14 14 15 14 13 12 11 12 14 16 19 20 21 21 21 22 22 21 20 20 20 21 22 21 19 20 22 22 20 20 21 21 21 21 21 22 22 22 21 20 19 17 16 16
11 10 9 9 9 10 11 11 12 11 12 13 13 13 13 14 15 16 16 16 16 16 16 17 17 17 16 15 15 15 14 13 12 11 10 10 9 9 9 9 9 9 9 8 8 7 6 5 5 5 7 9 11 13 14 15 16 17 18 19 21 21 21 21 21 21 21 22 24 24 23 21 20 20 21 22 22 23 23 22 21 20 19 17 15 15 14
9 9 8 9 10 11 11 11 10 10 11 12 13 13 13 13 13 14 14 14 14 14 15 14 14 14 14 13 12 13 11 9 6 4 3 3 3 4 5 6 7 7 6 5 3 3 2 2 2 2 3 4 5 7 8 9 10 11 14 17 19 20 20 20 21 22 23 24 23 22 21 20 19 19 20 21 22 21 21 20 19 17 16 15 15 14 13
9 9 9 10 10 10 9 10 10 10 11 12 12 12 11 10 10 10 11 11 12 13 13 12 12 11 10 9 9 8 6 4 3 3 3 3 3 5 6 6 6 4 3 1 1 2 4 6 7 4 3 6 9 10 10 10 10 10 11 14 17 19 20 22 23 24 23 22 20 20 20 19 19 19 20 21 20 18 17 17 16 16 16 15 14 13 12
9 10 10 11 10 8 7 8 9 9 9 10 10 8 7 8 9 9 9 9 11 11 11 11 10 7 4 4 6 6 6 5 5 4 6 8 9 8 7 6 4 3 3 5 8 9 9 10 9 7 8 12 15 15 14 15 15 15 16 18 22 23 23 23 23 22 20 19 18 18 18 18 18 18 19 19 18 17 16 15 15 15 15 14 14 12 11
9 9 10 10 9 7 6 7 7 6 7 7 7 6 6 7 8 9 8 8 8 8 8 8 7 6 5 4 5 4 1 3 7 11 15 17 15 12 10 8 7 8 10 12 13 12 11 11 11 12 13 15 16 15 15 17 19 19 20 22 24 23 22 20 19 19 18 18 17 16 15 15 15 16 16 16 17 17 16 14 14 15 14 13 12 10 9
9 9 8 8 6 6 5 5 5 5 5 6 6 6 7 7 8 9 8 7 8 9 8 10 16 20 16 13 13 15 17 19 22 23 23 23 21 18 15 13 13 15 16 16 15 15 14 13 12 12 13 14 14 13 14 16 17 19 20 22 23 23 20 18 17 17 17 16 15 14 14 14 14 14 15 16 16 16 15 15 14 14 13 12 11 10 10
8 8 6 4 3 3 3 3 3 3 4 5 6 6 6 8 9 8 6 10 11 11 11 15 24 30 28 25 24 23 22 21 22 22 22 21 19 18 16 15 15 17 18 16 15 14 14 13 12 11 10 10 10 11 11 13 14 16 17 19 21 22 20 17 16 16 16 15 14 14 13 13 14 15 16 16 16 15 15 14 14 13 12 11 11 12 11
6 5 2 2 1 1 1 3 3 3 3 4 5 6 7 7 7 6 8 11 11 12 14 17 22 27 27 25 22 19 17 17 18 20 20 18 16 15 14 13 13 14 15 16 16 16 15 14 13 11 9 7 8 9 10 10 11 12 13 15 17 18 17 15 14 14 14 14 13 13 14 15 17 17 17 16 15 15 14 14 13 13 13 13 13 12 11
4 3 1 2 1 1 1 1 3 4 4 5 6 7 7 5 4 5 9 10 8 10 13 15 17 19 21 20 18 16 15 15 17 17 16 14 12 11 11 10 10 11 12 14 16 16 15 14 14 13 11 9 8 9 10 10 11 11 10 11 12 13 12 12 12 12 13 14 14 15 17 18 18 17 17 15 14 14 14 14 13 13 14 14 13 12 12
2 3 1 2 2 2 1 2 2 4 5 5 6 7 7 4 3 4 6 7 7 8 9 11 13 14 16 17 17 16 15 14 14 12 11 9 8 7 8 9 10 10 11 13 14 14 13 13 13 13 13 12 10 9 10 11 12 12 12 11 12 12 11 11 11 13 15 16 17 18 18 18 18 17 16 15 14 14 14 14 14 14 14 14 13 12 12
1 4 3 0 3 2 1 1 1 2 3 3 4 6 7 6 4 2 3 4 6 7 7 9 11 12 13 14 16 16 16 14 13 11 10 8 7 7 7 9 11 12 13 13 13 12 12 13 13 13 12 11 10 9 10 10 10 11 11 11 11 11 11 11 12 13 14 15 16 17 17 17 16 15 15 15 14 14 14 14 15 15 15 14 13 13 13
2 1 3 2 2 2 1 2 2 1 1 2 3 4 6 7 6 4 2 2 3 5 7 8 10 11 11 12 13 15 15 14 14 14 13 11 10 9 8 9 12 14 14 13 12 12 13 14 14 13 12 10 9 9 9 9 9 9 9 9 8 9 9 9 10 10 11 12 13 14 14 14 14 14 15 15 15 15 15 15 16 16 15 14 14 13 13
5 3 3 3 2 2 2 2 3 2 1 1 2 3 4 6 6 5 3 2 2 3 4 6 8 10 10 10 11 12 13 15 16 15 14 13 14 13 10 9 10 12 11 10 10 10 11 12 11 11 11 11 10 10 9 8 7 7 8 8 8 8 8 8 8 8 9 10 10 11 12 13 13 14 14 15 15 16 16 16 17 17 16 15 15 14 14
7 5 4 4 3 3 2 1 1 1 1 1 1 2 2 3 4 4 3 3 4 3 3 3 4 6 7 7 8 9 10 12 15 16 16 16 16 15 13 12 11 9 8 7 6 6 6 7 6 6 6 7 8 8 9 9 8 8 7 7 7 7 7 8 8 8 9 9 10 11 11 12 13 14 15 16 16 17 17 18 17 17 17 16 16 16 16
7 6 6 5 4 4 4 3 2 2 2 1 0 1 1 1 2 3 4 4 5 5 5 5 5 4 5 5 5 6 6 7 9 12 14 14 13 14 14 14 13 11 11 10 9 7 7 6 6 5 4 4 4 5 6 6 6 6 6 6 7 7 8 8 8 9 9 9 10 11 11 13 14 15 16 17 18 18 18 18 18 18 18 17 17 17 17
9 7 7 6 6 6 5 5 4 4 3 2 2 2 1 1 1 3 3 4 5 6 6 6 5 5 5 4 4 4 4 4 5 6 8 8 9 11 14 15 15 15 15 14 13 12 11 10 9 9 9 9 8 6 4 4 4 3 3 4 5 6 7 8 9 9 10 10 11 11 12 13 14 15 16 17 17 17 17 17 17 17 17 17 17 17 17
11 10 9 8 8 7 7 6 5 4 4 3 3 4 4 3 3 3 3 3 4 4 5 5 5 5 5 4 3 3 3 4 4 4 5 6 7 9 12 15 16 18 18 18 17 17 16 15 14 14 14 15 13 11 9 9 8 7 7 7 6 6 7 7 8 9 9 10 11 12 13 14 14 14 15 15 15 15 16 16 16 16 16 17 17 17 17
14 13 12 11 10 9 9 8 7 6 5 5 5 6 6 5 4 4 2 2 2 2 2 3 3 4 4 3 3 2 1 1 1 2 3 4 6 7 9 12 14 15 17 18 19 19 19 19 19 19 19 19 18 15 14 13 12 11 11 10 10 10 10 10 10 11 11 11 11 12 12 13 14 14 15 15 15 15 15 15 16 16 17 17 17 17 18
16 15 14 13 12 12 12 11 9 8 7 7 8 8 8 7 6 5 4 3 2 2 1 0 1 1 1 2 2 2 2 1 1 2 2 4 4 5 6 8 9 11 13 15 16 17 18 19 19 20 20 20 19 18 17 16 15 15 15 14 14 14 14 14 14 15 15 15 14 15 15 15 15 16 16 17 17 17 17 17 17 17 17 17 18 18 18
18 17 17 15 14 14 14 13 12 11 10 10 11 11 10 9 8 7 6 6 5 4 3 3 2 2 1 1 1 1 2 3 3 4 5 6 7 8 8 9 9 10 11 12 14 15 16 17 18 18 19 19 20 20 19 19 19 19 19 19 19 18 18 18 18 17 17 17 17 17 18 18 19 19 19 19 20 20 20 19 19 19 19 19 19 19 19
20 20 19 18 17 17 16 16 14 13 13 13 13 13 12 12 11 10 9 8 7 6 5 5 5 5 5 5 5 5 6 7 8 9 9 10 11 12 13 13 13 14 14 14 15 15 16 17 17 18 18 19 20 20 20 20 20 20 21 21 22 22 22 22 21 21 21 21 20 20 20 20 21 22 22 22 22 22 22 22 22 22 21 21 21 21 20
21 21 21 20 20 19 19 18 17 15 15 15 15 15 15 14 13 11 10 10 9 9 8 8 8 8 8 8 9 10 11 12 13 13 14 15 16 16 17 18 18 18 19 19 19 20 20 20 21 21 21 21 21 21 22 22 22 22 22 22 22 22 23 23 23 24 24 23 23 23 23 23 23 23 24 24 24 24 24 24 24 24 23 23 23 23 22
22 22 22 22 21 21 21 20 19 18 17 17 17 16 16 15 14 13 12 12 11 11 11 11 11 11 12 12 12 13 14 15 16 18 19 20 21 21 22 23 23 23 23 23 23 24 24 25 25 26 26 26 26 25 25 24 24 24 24 24 24 24 24 24 24 25 25 25 25 25 25 25 25 25 25 26 26 26 26 26 26 26 25 25 25 24 24
Wind_Direction
266 266 265 265 263 263 264 264 264 262 262 261 259 257 258 256 256 258 257 253 252 251 252 255 258 260 261 259 259 259 261 263 263 261 264 267 266 263 261 259 254 250 246 243 244 245 245 247 248 249 250 250 250 250 251 252 253 254 255 255 254 254 255 256 257 257 257 258 260 259 259 259 260 260 260 260 261 263 259 255 257 262 264 266 266 267 270
265 265 265 265 264 265 266 266 266 266 265 264 264 264 263 259 256 257 255 252 250 250 251 253 253 254 258 259 260 262 262 262 263 265 266 267 266 263 260 257 253 251 248 244 244 246 247 248 250 251 252 253 253 253 253 252 252 253 253 253 253 254 255 256 257 257 256 255 256 257 256 255 255 255 257 259 259 255 252 252 257 262 265 268 268 268 269
265 264 265 265 266 266 265 264 265 266 266 265 264 265 265 263 261 260 257 255 253 250 250 252 252 252 254 257 259 261 261 262 264 265 265 265 266 264 261 257 253 251 250 248 247 248 249 250 251 252 252 252 253 253 252 250 250 253 254 253 252 254 254 254 256 258 258 257 256 256 256 256 257 257 259 261 259 257 256 257 259 261 263 266 269 269 269
266 268 269 269 269 268 266 264 265 266 267 268 267 265 264 264 264 263 259 257 257 254 252 252 252 252 253 255 257 257 258 261 262 262 262 263 264 262 259 257 255 252 253 254 253 252 254 255 254 254 253 252 252 251 251 249 247 248 250 250 249 250 251 251 254 256 257 258 257 258 257 258 258 259 261 262 262 263 263 263 262 263 265 266 268 269 270
269 270 271 270 269 267 267 268 270 270 269 268 268 266 263 262 262 262 261 260 259 257 256 256 255 255 255 256 256 255 255 257 258 258 259 261 261 260 258 257 255 255 257 259 258 257 259 260 259 257 256 254 253 251 251 250 247 246 248 249 249 250 250 250 251 252 254 256 257 258 259 260 260 261 262 264 265 265 264 263 263 264 266 267 268 269 270
272 272 272 271 269 268 270 271 271 270 267 266 266 265 264 262 261 261 261 262 259 257 257 258 257 255 256 256 256 255 254 254 255 255 257 259 260 259 258 257 257 259 262 263 262 261 263 263 262 260 258 256 255 253 252 251 250 249 249 249 251 252 253 253 252 251 252 253 254 255 257 258 260 260 261 263 265 266 265 264 264 265 267 267 268 268 268
272 272 271 270 269 271 273 273 270 268 267 266 266 266 266 266 264 262 262 261 261 259 258 258 257 257 257 257 258 257 254 253 255 256 257 259 258 257 257 258 260 263 265 265 264 263 264 263 260 259 258 257 256 256 255 254 253 252 251 251 252 252 253 255 255 255 255 256 256 256 256 258 259 260 260 262 265 266 267 267 266 267 267 268 268 268 268
271 271 270 271 271 272 272 271 271 271 271 271 270 268 267 268 267 265 262 261 261 262 260 259 258 257 257 257 257 256 254 254 256 256 256 256 255 255 256 259 261 263 264 264 264 264 264 263 261 260 259 258 257 257 256 256 255 255 254 254 254 254 254 255 256 257 258 259 259 259 260 261 261 262 263 264 265 266 267 268 269 269 269 269 269 270 270
270 270 271 272 273 273 273 273 273 273 274 273 272 271 270 269 268 267 266 264 263 263 261 260 260 259 259 258 256 254 255 256 255 252 252 253 254 256 257 259 260 262 263 264 264 265 265 265 264 263 261 259 258 257 257 257 256 256 256 255 256 256 256 257 257 258 259 259 260 260 260 261 262 263 263 263 264 265 266 268 269 270 270 270 271 271 272
270 271 271 272 273 274 274 275 274 274 274 271 270 271 271 271 270 270 269 267 265 264 263 262 262 262 260 257 254 254 255 255 253 249 249 252 254 255 257 257 259 260 262 262 263 264 265 264 264 263 262 261 260 259 258 258 258 257 257 256 256 256 257 257 257 258 259 260 260 260 260 261 261 262 263 263 264 265 266 267 269 270 270 271 272 273 274
271 272 271 272 273 272 272 272 272 273 273 271 269 269 269 269 270 270 269 268 266 265 265 265 264 263 260 255 253 253 254 253 252 250 249 251 253 255 256 257 259 260 262 262 262 263 264 264 264 264 263 262 262 261 260 259 258 258 258 258 258 258 258 258 258 258 258 258 259 259 260 261 261 262 263 264 264 265 266 267 269 270 270 271 272 273 274
271 272 273 273 273 272 272 272 271 271 271 271 269 267 268 269 269 268 267 268 268 267 267 266 264 262 258 254 252 252 253 253 254 253 250 250 253 255 257 258 260 262 263 263 263 264 264 264 264 264 264 263 263 262 261 260 259 259 259 259 259 260 260 260 260 260 259 259 259 259 259 259 260 261 262 263 264 265 265 266 267 268 269 270 271 272 271
271 271 272 271 270 270 272 272 271 272 272 270 266 265 268 269 269 268 267 266 266 265 265 264 263 261 258 255 254 253 253 253 255 255 254 253 254 255 257 259 261 263 264 263 263 264 264 264 264 264 263 263 263 262 261 261 260 260 259 259 259 260 260 261 261 261 260 260 259 259 258 258 259 259 260 261 262 263 264 265 266 267 268 268 269 269 268
273 271 271 270 268 268 270 271 271 272 271 268 266 265 265 265 265 266 266 265 264 263 262 261 260 259 257 256 256 255 254 253 254 256 256 255 254 255 257 258 260 261 262 262 262 263 262 263 263 263 263 263 263 262 262 261 261 260 260 259 259 259 259 260 260 260 260 260 260 259 258 258 258 258 259 259 260 261 262 263 264 266 266 266 267 267 268
274 272 270 269 268 269 271 272 272 271 269 267 266 265 264 263 265 266 267 267 266 265 263 262 260 258 257 256 255 256 256 255 255 255 255 255 256 257 258 258 259 260 261 261 261 261 261 261 262 262 262 263 263 263 262 262 261 261 261 260 259 259 259 259 259 259 259 259 259 259 259 258 258 259 259 259 259 260 261 262 263 263 264 265 266 267 268
270 271 270 270 271 272 271 270 270 269 267 266 265 266 266 267 268 268 268 268 268 267 265 264 262 261 260 258 257 256 256 255 254 254 255 256 257 258 258 259 259 260 260 260 260 260 260 260 261 261 262 262 262 262 262 262 262 262 262 261 261 260 260 259 260 259 259 258 258 258 258 258 259 259 259 259 260 260 261 261 261 262 263 264 265 266 267
269 270 271 271 271 272 271 269 268 267 267 268 269 270 270 270 270 270 269 269 269 268 267 266 264 263 262 261 260 259 258 257 257 256 256 257 258 259 259 259 259 260 260 259 259 259 260 260 260 260 260 261 262 262 262 263 263 263 262 262 262 261 261 260 261 261 260 259 258 258 258 258 258 258 259 260 260 260 260 260 261 262 262 262 264 265 266
272 272 272 271 271 271 270 270 269 268 270 272 272 271 271 270 270 270 270 270 270 270 269 268 267 265 264 262 261 261 260 260 259 259 258 258 259 259 260 260 260 261 261 260 260 260 260 260 261 261 261 261 261 262 262 263 263 263 263 262 261 261 260 261 261 262 262 261 260 260 259 259 258 259 260 260 260 260 260 260 261 261 261 262 263 264 263
273 273 272 272 272 272 271 270 269 270 271 272 271 271 271 270 271 271 271 271 271 271 272 271 269 268 267 265 263 263 262 262 261 260 260 259 259 259 260 260 261 261 261 261 261 260 260 260 260 261 261 261 261 261 262 262 263 263 263 263 263 263 262 262 263 263 263 262 261 260 259 259 259 259 260 260 260 260 261 261 261 262 262 263 264 263 262
275 274 273 272 272 273 273 273 272 272 271 271 271 272 273 273 273 273 272 271 271 271 272 272 272 271 270 269 267 266 264 264 263 262 262 261 260 260 260 260 260 260 261 261 261 261 261 260 261 260 260 260 261 261 261 261 262 263 263 263 263 264 264 264 263 263 264 263 262 262 261 260 260 259 259 260 260 261 262 263 263 264 264 265 265 264 264
276 275 275 274 274 274 274 274 273 273 273 273 272 273 273 273 273 273 273 273 272 271 271 271 271 271 270 270 269 268 266 266 265 264 264 263 261 261 260 260 260 260 260 259 260 260 260 261 261 261 261 262 262 262 262 262 262 263 263 263 263 264 264 264 264 264 264 264 264 263 263 262 261 260 260 260 261 261 262 263 263 264 265 265 266 266 265
279 279 278 277 277 276 276 275 274 274 274 275 275 274 274 275 274 274 273 273 272 272 271 271 271 270 270 269 269 268 267 266 265 265 264 263 263 262 261 261 261 261 261 260 260 260 261 261 261 262 262 263 263 263 263 263 263 263 263 264 264 264 265 265 265 265 265 265 265 265 265 264 263 262 262 262 262 262 262 262 263 263 264 264 264 263 261
283 282 281 280 280 280 280 279 278 278 278 278 278 277 277 277 276 275 274 274 273 272 272 272 272 271 270 270 269 268 268 267 265 264 264 263 263 263 263 263 263 262 262 262 262 262 262 262 262 262 262 262 263 263 263 263 263 262 262 262 263 264 264 264 265 265 265 265 266 265 265 264 264 264 263 263 263 263 262 261 260 259 258 256 254 252 251
286 285 284 285 285 284 284 283 282 282 281 281 281 282 281 281 279 278 278 277 277 276 275 275 275 275 273 272 271 270 268 267 266 265 264 263 263 263 263 263 263 262 262 263 263 263 262 262 263 263 263 263 263 264 264 263 263 263 263 263 263 264 264 265 265 265 265 265 264 264 264 264 263 262 262 260 258 256 253 250 248 246 244 242 240 242 242
286 286 286 287 287 287 286 284 283 282 283 285 287 288 287 284 284 284 285 283 281 280 280 279 279 279 278 276 273 271 270 269 268 267 265 264 263 263 262 262 262 262 262 262 262 263 263 263 263 263 264 264 263 263 263 263 263 263 263 263 263 263 263 262 262 262 261 260 260 260 260 258 256 253 250 245 240 236 233 233 232 230 229 231 234 238 239
290 288 288 288 287 285 283 280 279 280 283 287 291 291 288 286 286 288 288 287 286 286 286 285 285 285 282 279 275 272 270 269 267 266 265 264 263 263 262 262 261 261 261 261 262 262 263 263 263 263 262 262 261 261 260 260 260 260 260 260 260 259 257 255 254 252 251 251 252 251 247 242 237 230 222 215 213 213 214 218 220 219 220 225 231 235 236
293 291 290 287 282 277 276 276 278 281 284 288 293 293 290 288 289 289 289 291 292 294 294 292 290 288 284 280 277 274 272 271 269 267 266 265 263 262 261 260 260 260 260 261 261 260 260 259 259 260 260 258 256 255 253 252 252 253 252 251 249 245 243 242 240 237 235 235 236 233 227 219 209 200 197 202 204 203 204 209 213 216 219 223 228 230 231
291 290 289 284 277 276 279 282 286 288 288 291 294 294 290 287 289 292 295 296 297 296 295 291 288 286 284 281 280 280 280 279 277 274 271 269 266 262 259 258 258 258 257 255 253 252 254 255 256 256 256 252 248 245 242 241 240 238 236 233 230 230 232 232 230 228 226 222 216 212 207 202 199 200 204 208 207 207 210 213 215 218 221 222 225 230 231
289 288 286 286 286 286 285 285 288 289 288 291 295 294 287 284 287 292 294 295 295 295 294 292 291 290 287 284 283 284 284 283 282 281 276 271 266 260 255 252 249 244 240 239 240 242 245 246 246 246 244 240 237 234 232 230 227 225 224 224 224 225 227 227 226 225 221 211 202 198 197 198 202 207 209 209 210 212 212 210 212 216 217 217 220 224 227
294 292 291 297 301 298 293 292 291 288 288 292 296 296 291 287 286 287 288 289 291 293 294 293 293 294 293 291 289 288 287 286 286 284 278 272 265 256 247 238 227 218 213 212 213 218 223 228 230 231 231 231 232 231 228 226 225 223 223 224 223 219 216 216 216 211 202 195 193 194 196 200 205 209 211 211 210 210 208 208 211 212 210 211 217 220 220
302 300 301 306 306 302 297 294 292 291 292 294 295 297 297 293 288 288 290 292 293 293 293 294 297 300 303 302 297 292 291 291 293 295 294 286 261 226 203 191 183 179 179 186 198 218 225 195 153 154 190 200 195 191 190 194 201 205 206 209 210 206 200 196 191 186 184 186 190 193 197 202 207 208 207 204 202 202 204 207 207 206 206 212 215 212 209
302 301 303 304 303 297 291 288 291 296 297 297 298 301 303 303 302 302 302 302 303 303 305 312 320 323 321 310 298 298 308 327 349 22 69 111 140 151 152 153 156 160 165 158 86 78 96 109 111 115 147 156 150 147 147 152 160 167 172 176 177 175 172 171 170 172 177 184 189 193 197 200 201 201 198 197 198 201 201 200 200 202 205 204 200 197 198
302 299 299 300 298 291 285 288 294 300 308 311 312 315 322 327 326 321 317 319 323 329 339 346 348 347 330 288 280 293 315 333 347 31 98 121 131 135 136 134 128 120 111 102 95 90 94 106 113 117 128 137 141 142 142 143 142 141 144 152 157 158 159 162 166 171 176 181 184 188 192 194 195 195 194 195 199 202 202 198 195 194 191 186 186 190 194
300 293 291 295 296 292 292 297 301 311 329 340 345 346 347 345 340 337 339 348 4 19 24 26 49 92 136 202 233 244 240 106 106 109 112 114 117 121 126 128 130 130 122 112 103 97 101 115 128 131 132 135 138 138 140 142 142 141 144 150 155 156 156 157 163 169 173 175 177 180 183 185 185 186 189 196 201 201 197 188 181 178 177 179 184 190 198
309 301 293 291 290 287 296 311 320 326 343 360 7 5 6 9 2 358 8 41 64 64 59 72 89 99 109 124 129 123 118 114 112 112 112 113 116 120 125 130 136 134 125 114 105 101 106 119 129 131 130 133 135 136 140 144 146 147 150 155 161 163 162 159 160 164 167 172 177 179 177 176 180 188 200 206 202 192 181 173 171 172 176 182 190 199 211
329 321 297 275 271 278 301 336 342 337 356 16 18 20 32 28 12 11 55 87 84 74 74 85 90 93 99 108 107 100 97 102 106 106 108 110 113 116 119 121 124 123 117 113 110 109 112 120 128 128 126 125 125 129 139 148 153 156 160 163 168 171 171 168 166 169 172 177 181 181 180 186 197 207 209 202 187 175 170 170 173 177 183 193 202 210 214
345 336 283 212 226 297 2 21 3 349 5 22 25 40 53 39 16 35 84 92 84 78 83 89 91 93 100 108 105 91 84 94 103 106 106 107 108 108 109 109 108 105 107 113 117 117 118 125 131 134 136 139 134 128 130 139 148 157 163 167 170 173 175 177 180 183 184 183 184 188 197 207 211 208 198 185 174 171 173 176 181 189 197 204 208 209 207
359 349 266 190 215 301 354 34 15 19 38 46 43 49 54 39 25 64 88 93 91 84 82 87 94 99 103 109 112 108 102 101 103 103 104 105 104 103 105 110 109 104 106 113 117 117 120 127 130 128 127 136 150 155 153 152 154 159 166 170 172 175 178 183 188 193 194 196 201 208 212 211 205 196 186 178 175 176 181 187 194 201 205 207 206 205 204
19 16 27 189 215 258 255 244 320 19 43 53 49 46 42 30 31 76 93 99 102 96 85 84 91 100 107 114 122 126 125 121 118 114 111 112 110 103 108 120 121 113 109 111 112 111 116 121 122 119 114 114 127 150 164 170 172 175 179 183 185 188 192 195 199 204 209 212 214 213 208 201 193 186 181 179 181 186 193 200 205 208 208 208 207 207 210
70 33 30 143 213 223 218 212 265 19 37 42 42 43 40 33 31 59 98 102 104 109 106 96 93 101 114 124 131 136 141 145 147 141 135 133 127 116 116 122 120 114 112 112 110 109 112 115 115 115 115 116 125 141 155 165 172 176 181 187 191 195 200 203 206 209 212 212 209 204 197 191 188 186 185 186 192 199 205 209 211 212 212 211 212 214 220
195 22 12 344 239 221 155 116 126 124 64 37 40 39 34 32 34 40 57 90 101 111 116 112 107 108 115 127 140 149 156 161 159 149 139 137 135 130 126 124 119 116 115 114 110 109 110 109 107 106 107 109 118 129 141 153 163 167 171 175 178 182 187 192 197 200 201 200 198 196 194 193 192 192 193 198 205 212 214 215 216 217 216 216 219 224 230
220 245 305 305 261 228 185 133 131 134 103 67 52 32 25 31 37 44 57 88 107 114 118 117 116 113 112 119 135 148 158 167 167 159 152 151 150 148 147 142 131 121 117 113 112 113 110 103 97 96 99 101 103 107 114 126 138 145 151 156 158 163 170 176 181 188 195 198 200 200 200 201 202 203 208 214 219 221 221 220 220 220 221 222 226 231 236
221 245 280 283 251 222 213 189 160 150 122 86 52 19 20 33 39 43 58 74 83 92 101 111 120 124 121 119 123 130 144 157 162 162 161 162 163 163 164 161 155 150 147 145 142 138 130 118 112 110 111 114 117 118 119 122 124 127 134 143 149 156 164 171 178 185 192 198 203 206 208 210 213 216 220 225 228 228 226 224 223 224 226 229 232 236 241
220 240 268 271 250 237 243 247 227 193 169 165 212 295 339 28 47 55 62 63 63 69 78 84 96 115 128 133 134 135 139 149 157 160 161 164 167 172 175 174 173 175 178 181 185 186 183 180 175 170 170 176 171 155 145 142 139 136 138 144 150 158 168 179 188 194 197 199 204 209 214 218 222 225 229 231 233 232 231 229 229 230 233 235 238 242 247
221 233 253 260 250 240 241 240 222 197 182 186 203 214 212 159 97 84 79 72 66 64 64 65 72 85 102 118 133 143 152 164 173 178 180 182 183 185 188 188 186 184 185 191 197 201 204 209 212 210 209 213 214 209 202 203 202 197 189 183 179 179 183 186 191 199 205 209 212 215 219 222 225 228 231 234 236 236 235 236 237 238 240 242 245 248 251
227 231 241 250 248 240 237 235 221 197 181 184 197 198 192 174 144 118 102 90 82 72 61 55 57 63 70 82 99 118 136 154 168 181 196 205 204 200 200 201 199 195 194 196 200 204 207 211 215 218 219 219 221 227 234 236 236 238 239 236 232 228 221 212 207 206 209 213 217 221 224 226 228 230 232 235 238 240 241 243 245 246 247 249 250 252 254
231 233 236 243 246 240 234 231 223 208 196 195 199 201 198 190 178 169 161 137 105 91 78 63 59 57 53 50 51 60 77 131 183 194 206 215 214 208 207 208 209 209 208 208 208 211 213 213 214 218 221 222 225 230 235 235 235 238 241 242 242 242 241 239 236 233 230 228 228 230 230 231 232 234 235 237 239 242 245 247 250 252 253 255 256 257 258
232 234 237 242 245 240 232 226 220 211 203 202 204 206 207 206 202 200 204 210 211 209 202 167 94 75 60 47 39 37 26 354 311 280 267 263 256 246 237 230 225 223 223 223 223 224 225 225 226 227 228 230 232 234 236 236 237 239 240 242 244 244 244 243 243 243 242 241 241 241 241 241 241 240 240 240 241 242 245 247 249 253 256 258 259 261 262
230 231 235 241 243 239 231 225 218 208 202 202 205 209 213 215 217 220 226 231 232 232 232 234 233 236 250 268 285 300 307 303 298 292 285 281 279 277 274 271 264 256 250 246 243 241 240 241 241 241 242 242 243 244 244 244 245 244 244 244 245 246 246 246 247 246 246 245 245 244 244 245 245 245 245 245 245 245 245 247 248 251 254 257 259 261 262
230 229 232 237 239 236 231 225 219 211 205 203 203 205 211 219 224 228 233 238 239 239 240 239 242 249 258 268 277 286 292 294 295 293 290 287 284 280 277 275 275 274 272 270 268 266 263 261 259 257 256 254 254 254 254 253 251 249 248 248 249 249 250 250 251 251 250 249 248 247 246 245 245 246 246 247 248 248 248 249 250 250 252 254 256 258 260
231 230 230 232 233 232 230 227 221 216 214 214 213 213 216 222 227 231 236 240 241 241 243 247 255 264 271 277 286 295 301 303 304 303 301 299 296 292 287 282 277 275 273 273 273 273 273 273 272 271 269 267 265 263 263 262 260 259 257 255 253 253 252 252 252 252 252 251 251 250 248 247 246 246 246 247 248 248 249 250 251 252 252 253 254 256 258
232 231 229 229 229 230 231 230 226 222 221 223 225 226 227 229 232 235 238 239 240 243 247 254 263 270 278 285 294 301 305 308 309 310 310 309 308 306 302 297 290 284 279 276 274 272 272 273 273 273 272 272 270 269 267 266 265 264 263 262 261 259 257 255 254 253 252 252 251 251 250 249 248 248 248 247 247 248 248 249 251 251 252 252 253 255 257
Height
5665 5665 5666 5667 5667 5666 5666 5666 5667 5668 5668 5669 5669 5669 5671 5671 5669 5669 5671 5671 5669 5671 5671 5670 5669 5668 5667 5667 5666 5666 5667 5665 5665 5665 5665 5664 5664 5664 5664 5665 5665 5666 5667 5669 5670 5671 5672 5673 5673 5674 5674 5675 5675 5676 5676 5677 5677 5678 5678 5679 5680 5681 5681 5681 5682 5683 5685 5686 5687 5687 5688 5689 5689 5690 5690 5690 5690 5691 5692 5692 5692 5692 5693 5693 5694 5695 5694
5658 5659 5660 5660 5660 5660 5660 5660 5660 5661 5662 5662 5662 5662 5663 5664 5663 5663 5664 5663 5664 5666 5665 5664 5664 5664 5663 5662 5661 5661 5661 5660 5660 5660 5659 5659 5659 5659 5659 5660 5660 5660 5660 5661 5663 5664 5666 5667 5667 5668 5668 5668 5669 5669 5670 5671 5672 5672 5673 5674 5675 5675 5676 5676 5676 5677 5679 5680 5681 5682 5682 5683 5684 5684 5685 5685 5685 5685 5685 5686 5687 5687 5687 5688 5688 5689 5689
5651 5653 5654 5654 5653 5653 5653 5653 5653 5654 5654 5655 5655 5656 5656 5656 5656 5657 5656 5655 5657 5659 5659 5658 5658 5659 5657 5656 5656 5657 5656 5655 5655 5654 5654 5654 5653 5653 5654 5654 5655 5655 5654 5655 5657 5658 5659 5660 5661 5662 5662 5662 5663 5664 5664 5665 5666 5667 5668 5669 5669 5670 5670 5670 5671 5671 5673 5674 5675 5676 5677 5677 5678 5678 5678 5679 5680 5680 5680 5680 5681 5681 5681 5682 5681 5682 5684
5645 5647 5647 5647 5647 5646 5645 5646 5647 5647 5647 5648 5648 5649 5649 5649 5649 5649 5649 5649 5650 5652 5652 5651 5651 5652 5651 5651 5651 5652 5651 5650 5649 5648 5647 5648 5648 5647 5648 5648 5649 5649 5649 5649 5651 5652 5652 5653 5654 5655 5656 5656 5657 5658 5658 5658 5660 5661 5662 5662 5663 5663 5664 5664 5665 5665 5666 5667 5668 5669 5670 5671 5672 5672 5672 5672 5673 5674 5675 5675 5675 5675 5675 5675 5675 5675 5677
5639 5641 5641 5641 5640 5637 5637 5639 5641 5641 5641 5641 5642 5642 5643 5643 5643 5642 5642 5643 5645 5645 5644 5643 5644 5645 5645 5645 5644 5644 5644 5644 5643 5641 5641 5642 5642 5641 5641 5642 5642 5643 5643 5644 5645 5646 5646 5647 5648 5649 5649 5649 5651 5652 5652 5652 5653 5654 5654 5655 5656 5657 5657 5658 5659 5659 5660 5661 5661 5662 5663 5664 5665 5665 5666 5665 5666 5667 5668 5669 5669 5669 5669 5670 5669 5669 5670
5632 5634 5634 5633 5631 5630 5632 5634 5635 5634 5634 5634 5634 5634 5635 5636 5636 5636 5635 5637 5638 5637 5636 5636 5637 5637 5638 5637 5636 5636 5637 5637 5636 5636 5636 5635 5635 5634 5634 5635 5635 5635 5636 5638 5640 5640 5640 5640 5641 5641 5642 5642 5644 5644 5645 5646 5647 5647 5647 5648 5649 5649 5650 5651 5652 5653 5654 5655 5656 5656 5657 5658 5658 5659 5659 5659 5659 5660 5660 5661 5662 5663 5663 5664 5664 5664 5664
5627 5627 5627 5625 5624 5625 5627 5627 5626 5626 5627 5627 5627 5628 5629 5628 5629 5629 5630 5630 5630 5629 5629 5629 5629 5630 5630 5629 5628 5628 5629 5629 5629 5631 5631 5629 5627 5626 5627 5627 5627 5628 5630 5632 5632 5632 5633 5634 5634 5634 5635 5636 5637 5637 5638 5639 5640 5640 5641 5641 5641 5642 5643 5643 5645 5646 5647 5648 5649 5650 5651 5651 5652 5652 5652 5653 5653 5653 5653 5654 5655 5656 5657 5657 5657 5658 5658
5621 5621 5619 5617 5618 5620 5620 5619 5619 5619 5621 5621 5620 5621 5621 5620 5621 5622 5622 5623 5622 5622 5622 5622 5622 5622 5622 5622 5621 5619 5620 5623 5624 5624 5624 5621 5618 5618 5619 5621 5621 5621 5623 5623 5623 5624 5625 5626 5627 5627 5628 5630 5630 5630 5631 5632 5633 5633 5634 5634 5634 5635 5636 5636 5638 5639 5640 5641 5642 5643 5643 5644 5644 5645 5645 5646 5646 5646 5646 5647 5647 5648 5649 5650 5650 5651 5651
5615 5614 5613 5612 5613 5613 5612 5612 5613 5613 5614 5614 5612 5612 5613 5613 5613 5614 5614 5614 5615 5615 5614 5614 5615 5614 5615 5616 5612 5609 5613 5616 5616 5615 5615 5613 5612 5612 5613 5614 5614 5614 5615 5616 5616 5617 5617 5618 5619 5620 5621 5622 5623 5623 5624 5625 5626 5626 5627 5627 5628 5628 5629 5630 5631 5632 5632 5633 5634 5635 5636 5637 5637 5637 5638 5639 5639 5639 5640 5640 5640 5639 5640 5642 5643 5644 5644
5608 5608 5607 5607 5607 5607 5606 5606 5606 5606 5607 5607 5605 5604 5605 5605 5605 5606 5606 5606 5607 5607 5606 5607 5608 5607 5609 5609 5603 5601 5607 5608 5605 5606 5607 5606 5606 5605 5604 5605 5606 5606 5608 5608 5608 5609 5610 5610 5610 5611 5613 5614 5615 5616 5617 5618 5618 5619 5620 5620 5621 5621 5622 5623 5625 5625 5626 5626 5627 5628 5629 5629 5630 5630 5631 5631 5632 5632 5632 5632 5632 5631 5632 5633 5635 5637 5637
5603 5602 5601 5602 5601 5600 5600 5600 5600 5599 5600 5600 5599 5597 5597 5598 5598 5598 5598 5598 5598 5599 5599 5600 5601 5601 5603 5601 5594 5594 5599 5598 5596 5599 5600 5598 5599 5598 5597 5598 5598 5598 5600 5601 5601 5601 5602 5602 5603 5604 5605 5606 5607 5608 5609 5610 5611 5611 5612 5613 5613 5614 5615 5616 5618 5619 5619 5619 5620 5621 5621 5622 5622 5623 5623 5624 5624 5624 5625 5625 5624 5624 5624 5626 5629 5631 5631
5597 5596 5595 5596 5595 5592 5593 5594 5593 5592 5593 5594 5592 5590 5590 5591 5591 5590 5591 5590 5590 5591 5591 5592 5593 5594 5593 5590 5586 5587 5591 5589 5588 5592 5592 5591 5591 5592 5591 5591 5591 5591 5594 5595 5595 5594 5595 5595 5595 5596 5597 5597 5598 5600 5600 5601 5602 5603 5604 5605 5606 5606 5607 5609 5610 5611 5611 5612 5613 5614 5615 5615 5616 5616 5616 5616 5617 5617 5617 5618 5618 5617 5618 5621 5623 5624 5624
5591 5590 5589 5590 5588 5585 5586 5587 5586 5586 5587 5587 5585 5584 5583 5583 5582 5582 5583 5583 5583 5584 5584 5583 5585 5585 5584 5580 5579 5581 5583 5583 5582 5582 5583 5584 5585 5585 5584 5584 5584 5585 5587 5587 5587 5588 5588 5588 5588 5588 5589 5589 5590 5591 5592 5593 5594 5595 5596 5597 5598 5599 5600 5601 5602 5603 5603 5604 5606 5607 5608 5608 5609 5609 5609 5609 5610 5610 5610 5611 5612 5611 5613 5615 5616 5616 5617
5584 5583 5582 5582 5581 5579 5579 5580 5579 5579 5580 5579 5578 5577 5576 5574 5573 5574 5575 5575 5575 5575 5575 5575 5576 5577 5575 5573 5573 5574 5575 5576 5575 5574 5576 5577 5577 5577 5577 5577 5577 5578 5579 5580 5580 5581 5581 5581 5581 5581 5581 5582 5582 5583 5584 5585 5586 5587 5589 5590 5591 5591 5592 5593 5594 5595 5596 5597 5598 5599 5600 5601 5602 5602 5603 5603 5603 5604 5604 5605 5606 5605 5606 5608 5609 5609 5610
5575 5575 5575 5573 5573 5573 5573 5573 5572 5572 5571 5570 5569 5568 5567 5566 5566 5567 5567 5567 5567 5566 5566 5566 5567 5568 5568 5567 5566 5566 5567 5568 5568 5568 5568 5568 5569 5569 5569 5570 5570 5571 5572 5573 5573 5573 5573 5574 5573 5573 5574 5574 5575 5576 5577 5577 5578 5580 5581 5582 5583 5584 5585 5586 5586 5587 5589 5590 5590 5592 5593 5593 5594 5595 5595 5596 5597 5598 5599 5600 5599 5598 5599 5601 5602 5603 5604
5568 5569 5568 5566 5566 5566 5566 5565 5565 5563 5562 5561 5560 5560 5560 5560 5559 5559 5559 5559 5558 5558 5557 5558 5559 5559 5560 5560 5559 5558 5559 5560 5560 5560 5560 5560 5560 5561 5562 5562 5562 5563 5564 5565 5565 5565 5566 5566 5566 5566 5566 5567 5568 5568 5569 5570 5571 5572 5573 5574 5575 5577 5578 5578 5579 5580 5582 5583 5583 5584 5585 5586 5586 5587 5587 5588 5590 5592 5592 5592 5591 5591 5593 5595 5595 5597 5598
5563 5563 5563 5561 5560 5560 5559 5558 5557 5555 5553 5553 5552 5553 5553 5553 5552 5551 5551 5551 5550 5549 5548 5549 5550 5551 5552 5552 5551 5551 5551 5552 5553 5553 5553 5553 5553 5553 5554 5554 5554 5554 5556 5557 5557 5558 5558 5558 5558 5559 5559 5559 5560 5561 5562 5563 5563 5564 5565 5566 5568 5569 5570 5571 5572 5573 5574 5575 5576 5577 5578 5579 5579 5579 5580 5582 5584 5585 5585 5585 5584 5585 5587 5588 5589 5591 5591
5558 5557 5557 5555 5554 5553 5553 5552 5550 5548 5547 5547 5546 5545 5545 5544 5543 5543 5543 5543 5542 5540 5540 5541 5542 5542 5543 5543 5543 5543 5543 5543 5544 5545 5545 5545 5545 5545 5546 5546 5546 5546 5548 5549 5549 5550 5550 5550 5551 5551 5551 5552 5553 5554 5554 5555 5556 5557 5558 5559 5561 5562 5564 5564 5565 5566 5567 5568 5569 5569 5570 5570 5571 5572 5573 5574 5576 5577 5577 5578 5578 5579 5580 5582 5583 5584 5585
5552 5552 5550 5549 5547 5547 5546 5545 5544 5542 5541 5541 5539 5538 5537 5537 5536 5536 5536 5535 5534 5533 5532 5532 5532 5533 5534 5534 5535 5535 5534 5534 5535 5535 5536 5537 5538 5538 5538 5538 5538 5539 5540 5541 5541 5542 5542 5543 5543 5543 5543 5544 5545 5546 5547 5548 5549 5550 5551 5552 5554 5555 5557 5558 5559 5559 5560 5561 5561 5562 5562 5562 5564 5565 5566 5567 5568 5569 5570 5571 5572 5573 5574 5576 5577 5577 5578
5546 5546 5544 5542 5541 5540 5539 5538 5537 5536 5534 5534 5533 5531 5530 5530 5530 5529 5528 5527 5527 5525 5524 5523 5524 5524 5525 5525 5525 5525 5525 5525 5526 5526 5527 5528 5528 5529 5529 5529 5530 5530 5531 5532 5532 5533 5533 5534 5534 5534 5534 5536 5537 5538 5539 5541 5542 5542 5544 5545 5546 5548 5549 5551 5551 5551 5552 5552 5553 5554 5554 5555 5557 5558 5559 5560 5561 5562 5563 5564 5565 5566 5567 5568 5569 5570 5571
5539 5539 5538 5536 5535 5534 5533 5531 5530 5528 5526 5526 5527 5525 5523 5522 5522 5521 5520 5520 5519 5517 5516 5515 5515 5515 5516 5516 5515 5515 5516 5516 5516 5517 5517 5518 5518 5519 5519 5519 5520 5521 5522 5523 5523 5524 5525 5525 5525 5525 5526 5528 5529 5530 5531 5533 5534 5535 5536 5537 5539 5540 5542 5542 5543 5544 5544 5544 5545 5546 5546 5548 5550 5551 5552 5553 5554 5555 5556 5557 5558 5559 5561 5562 5562 5563 5565
5533 5532 5530 5528 5528 5527 5525 5523 5522 5520 5518 5519 5519 5518 5516 5515 5514 5513 5512 5512 5510 5509 5508 5507 5506 5506 5507 5507 5506 5506 5507 5507 5507 5507 5507 5507 5508 5508 5508 5509 5510 5512 5513 5514 5514 5515 5516 5517 5516 5517 5519 5520 5521 5522 5523 5525 5526 5527 5528 5530 5531 5532 5533 5534 5535 5535 5536 5536 5537 5538 5539 5540 5542 5543 5545 5546 5547 5548 5549 5550 5551 5552 5554 5555 5556 5557 5559
5526 5525 5523 5521 5520 5519 5517 5515 5514 5513 5511 5511 5512 5510 5509 5508 5506 5505 5504 5504 5502 5501 5500 5498 5497 5497 5497 5497 5497 5497 5497 5497 5497 5497 5497 5497 5497 5498 5499 5500 5501 5502 5503 5504 5505 5506 5507 5507 5507 5508 5510 5511 5512 5513 5514 5516 5517 5518 5520 5522 5523 5524 5525 5526 5526 5527 5528 5529 5529 5530 5531 5532 5534 5536 5537 5539 5540 5541 5542 5543 5544 5546 5548 5549 5550 5552 5553
5520 5518 5515 5514 5513 5512 5511 5509 5507 5506 5505 5504 5504 5504 5503 5501 5500 5499 5498 5497 5495 5494 5493 5492 5490 5488 5488 5488 5488 5487 5487 5487 5486 5487 5487 5487 5488 5488 5489 5490 5491 5493 5494 5494 5495 5496 5497 5497 5498 5499 5501 5502 5504 5504 5505 5506 5508 5510 5511 5513 5515 5516 5517 5518 5518 5519 5520 5521 5521 5522 5523 5525 5526 5528 5530 5532 5533 5535 5536 5537 5538 5540 5542 5544 5545 5547 5548
5515 5512 5510 5508 5507 5506 5505 5503 5502 5501 5500 5499 5499 5498 5497 5496 5495 5493 5493 5491 5489 5487 5486 5486 5484 5482 5480 5480 5479 5479 5478 5478 5477 5477 5477 5478 5478 5479 5480 5481 5482 5483 5484 5485 5485 5486 5487 5488 5489 5490 5491 5493 5494 5495 5496 5497 5499 5501 5503 5505 5507 5508 5509 5510 5511 5512 5513 5514 5514 5515 5517 5519 5520 5522 5524 5526 5527 5529 5530 5532 5534 5536 5538 5540 5542 5543 5545
5509 5507 5506 5504 5502 5501 5500 5499 5498 5497 5496 5496 5495 5495 5494 5493 5491 5490 5488 5487 5485 5483 5482 5480 5479 5477 5475 5474 5473 5472 5471 5471 5470 5470 5470 5470 5470 5471 5471 5472 5473 5474 5475 5476 5477 5478 5478 5479 5480 5481 5482 5484 5484 5485 5487 5488 5490 5492 5495 5497 5499 5501 5502 5503 5505 5506 5507 5509 5510 5511 5513 5514 5515 5518 5520 5521 5523 5525 5527 5529 5531 5533 5535 5537 5540 5542 5544
5503 5502 5501 5500 5498 5497 5497 5496 5496 5495 5494 5493 5493 5492 5491 5490 5489 5487 5485 5483 5482 5480 5478 5477 5475 5474 5472 5470 5468 5467 5466 5466 5466 5465 5464 5465 5465 5465 5465 5465 5466 5467 5468 5469 5470 5471 5471 5471 5472 5473 5474 5475 5476 5477 5478 5480 5482 5485 5488 5490 5492 5495 5496 5498 5500 5501 5503 5506 5508 5509 5510 5511 5513 5515 5517 5518 5520 5522 5524 5526 5528 5530 5533 5535 5538 5540 5542
5499 5498 5497 5497 5496 5495 5495 5494 5494 5493 5492 5491 5490 5489 5488 5487 5486 5484 5483 5481 5479 5478 5476 5474 5472 5471 5469 5467 5465 5464 5463 5463 5462 5461 5461 5461 5460 5460 5460 5461 5461 5462 5463 5464 5465 5465 5465 5466 5467 5468 5469 5470 5471 5471 5473 5474 5477 5480 5482 5485 5488 5490 5492 5494 5496 5498 5500 5503 5505 5507 5508 5510 5511 5513 5514 5516 5519 5521 5523 5525 5527 5529 5531 5534 5536 5538 5540
5497 5496 5495 5495 5494 5494 5493 5493 5492 5491 5490 5489 5488 5487 5486 5485 5483 5482 5480 5479 5477 5475 5474 5472 5470 5468 5466 5465 5463 5462 5461 5460 5459 5458 5458 5458 5457 5457 5458 5458 5459 5460 5461 5461 5462 5462 5463 5464 5465 5466 5467 5468 5468 5469 5470 5472 5474 5477 5479 5482 5484 5487 5489 5492 5494 5496 5498 5500 5502 5504 5506 5507 5509 5511 5513 5515 5517 5519 5521 5523 5525 5527 5530 5532 5535 5536 5538
5495 5494 5494 5493 5493 5492 5491 5491 5490 5489 5488 5487 5486 5485 5484 5482 5481 5479 5478 5476 5475 5473 5471 5470 5467 5465 5464 5462 5461 5460 5459 5458 5457 5456 5456 5455 5456 5456 5456 5457 5458 5459 5459 5460 5461 5462 5463 5464 5465 5466 5466 5467 5467 5468 5469 5471 5472 5475 5477 5479 5482 5484 5487 5489 5491 5493 5496 5498 5501 5503 5504 5506 5508 5510 5512 5514 5516 5518 5520 5522 5524 5526 5529 5531 5533 5535 5536
5493 5493 5492 5492 5491 5490 5489 5489 5488 5487 5486 5485 5484 5483 5481 5480 5478 5477 5476 5474 5473 5471 5470 5468 5466 5464 5462 5460 5459 5458 5456 5456 5455 5455 5455 5455 5455 5456 5456 5457 5458 5459 5460 5461 5462 5463 5463 5464 5464 5465 5465 5466 5466 5467 5469 5470 5471 5473 5475 5477 5479 5482 5485 5487 5490 5492 5495 5498 5500 5502 5504 5505 5507 5509 5511 5513 5515 5517 5519 5521 5523 5525 5528 5530 5531 5533 5534
5492 5492 5491 5490 5489 5489 5488 5487 5486 5485 5484 5483 5482 5481 5480 5478 5477 5476 5475 5473 5472 5470 5468 5466 5464 5462 5460 5459 5457 5456 5455 5455 5455 5455 5455 5456 5456 5457 5457 5458 5459 5459 5460 5461 5462 5463 5463 5464 5465 5465 5465 5466 5467 5468 5469 5471 5472 5473 5474 5476 5479 5482 5485 5487 5490 5492 5495 5498 5500 5502 5504 5505 5507 5509 5511 5513 5515 5517 5519 5521 5523 5524 5526 5528 5530 5531 5533
5491 5490 5489 5488 5488 5487 5486 5485 5485 5484 5483 5482 5481 5480 5479 5478 5477 5476 5474 5473 5471 5470 5468 5465 5463 5461 5459 5457 5456 5455 5455 5455 5455 5456 5456 5457 5458 5458 5459 5459 5460 5461 5461 5462 5463 5464 5465 5465 5466 5467 5467 5467 5468 5470 5471 5472 5473 5474 5476 5478 5481 5483 5486 5488 5491 5493 5495 5498 5500 5502 5503 5505 5507 5509 5511 5513 5515 5517 5519 5520 5522 5523 5525 5527 5529 5530 5532
5490 5489 5488 5487 5486 5486 5485 5485 5484 5483 5482 5481 5480 5479 5479 5478 5477 5475 5474 5473 5471 5470 5468 5466 5464 5461 5459 5457 5456 5456 5456 5457 5458 5458 5459 5459 5460 5461 5461 5461 5462 5463 5464 5465 5466 5467 5467 5468 5469 5469 5470 5470 5471 5473 5473 5475 5476 5477 5479 5481 5483 5485 5487 5490 5492 5494 5496 5498 5500 5502 5503 5505 5507 5509 5511 5513 5515 5517 5518 5519 5521 5523 5524 5526 5528 5529 5531
5488 5487 5486 5486 5485 5485 5485 5484 5484 5483 5482 5481 5480 5480 5479 5478 5477 5475 5474 5473 5472 5470 5469 5467 5464 5462 5460 5460 5459 5459 5460 5461 5461 5462 5462 5462 5463 5464 5464 5465 5466 5467 5467 5469 5470 5470 5470 5471 5472 5472 5473 5474 5475 5476 5477 5478 5479 5481 5482 5484 5485 5487 5489 5491 5493 5495 5497 5499 5501 5502 5504 5506 5508 5509 5511 5513 5515 5516 5517 5519 5520 5522 5524 5525 5527 5528 5530
5487 5486 5485 5485 5485 5484 5484 5484 5484 5483 5482 5481 5480 5480 5479 5478 5477 5476 5475 5474 5473 5471 5470 5468 5466 5464 5464 5465 5465 5465 5465 5466 5466 5466 5467 5467 5468 5468 5469 5469 5470 5470 5471 5471 5472 5473 5473 5474 5475 5475 5476 5477 5478 5479 5480 5481 5482 5484 5485 5486 5488 5489 5491 5493 5495 5497 5498 5500 5502 5503 5505 5506 5508 5510 5511 5513 5514 5515 5517 5518 5520 5521 5523 5524 5526 5527 5528
5487 5486 5485 5485 5484 5484 5484 5484 5484 5483 5482 5481 5481 5480 5479 5478 5478 5477 5476 5475 5474 5473 5472 5471 5469 5467 5468 5469 5469 5470 5470 5471 5470 5470 5471 5471 5472 5472 5473 5473 5473 5473 5474 5474 5475 5475 5476 5476 5477 5478 5479 5480 5480 5481 5482 5483 5484 5486 5487 5489 5490 5492 5494 5495 5497 5498 5499 5501 5502 5504 5505 5507 5508 5510 5511 5512 5513 5515 5516 5518 5519 5521 5522 5523 5524 5525 5526
5486 5486 5485 5485 5485 5485 5484 5484 5483 5483 5482 5481 5481 5480 5479 5479 5479 5478 5477 5476 5475 5474 5474 5473 5472 5471 5470 5471 5472 5473 5474 5474 5474 5474 5474 5474 5475 5476 5476 5476 5476 5476 5476 5477 5477 5477 5477 5478 5479 5479 5481 5482 5483 5484 5484 5485 5486 5487 5489 5490 5492 5494 5495 5496 5498 5499 5500 5501 5503 5504 5505 5507 5508 5509 5510 5512 5513 5514 5516 5517 5519 5520 5521 5522 5523 5524 5525
5486 5485 5485 5484 5485 5485 5484 5484 5483 5483 5482 5482 5481 5481 5480 5479 5479 5479 5478 5477 5477 5476 5475 5475 5475 5474 5473 5473 5474 5475 5475 5476 5477 5477 5477 5477 5478 5478 5478 5478 5478 5478 5479 5479 5478 5479 5479 5480 5480 5481 5482 5483 5484 5486 5487 5487 5488 5489 5490 5491 5493 5494 5495 5497 5498 5499 5500 5502 5503 5504 5505 5506 5508 5509 5510 5511 5513 5514 5516 5517 5518 5519 5520 5521 5522 5523 5524
5486 5485 5485 5484 5484 5484 5484 5484 5483 5483 5483 5482 5482 5481 5480 5480 5479 5479 5479 5478 5478 5477 5477 5476 5476 5476 5475 5475 5475 5476 5476 5477 5477 5478 5479 5479 5479 5480 5480 5481 5481 5480 5481 5481 5481 5481 5481 5481 5482 5483 5484 5485 5486 5487 5488 5489 5490 5491 5492 5493 5494 5495 5496 5497 5498 5499 5500 5502 5503 5504 5505 5506 5507 5508 5510 5511 5512 5514 5515 5516 5517 5518 5519 5520 5521 5521 5522
5485 5485 5485 5485 5484 5484 5484 5484 5484 5483 5483 5483 5482 5481 5481 5480 5480 5479 5479 5479 5478 5478 5478 5477 5477 5477 5477 5477 5477 5477 5477 5477 5478 5479 5480 5480 5481 5481 5482 5483 5483 5483 5483 5483 5483 5484 5484 5484 5484 5485 5486 5486 5487 5488 5488 5489 5490 5491 5492 5493 5494 5495 5496 5497 5498 5499 5500 5501 5502 5503 5505 5506 5507 5508 5509 5511 5512 5513 5514 5515 5516 5517 5518 5519 5519 5520 5520
5484 5484 5484 5484 5484 5484 5484 5484 5484 5483 5483 5483 5482 5482 5481 5481 5480 5480 5479 5479 5478 5478 5478 5478 5478 5478 5478 5478 5478 5478 5478 5478 5479 5480 5480 5481 5481 5482 5483 5484 5484 5484 5485 5485 5486 5486 5486 5487 5487 5487 5488 5488 5489 5489 5490 5490 5491 5492 5492 5493 5494 5495 5496 5497 5498 5499 5500 5501 5502 5504 5505 5506 5507 5508 5509 5510 5511 5513 5513 5514 5515 5516 5517 5517 5518 5518 5519
5483 5483 5484 5484 5484 5484 5484 5484 5484 5484 5483 5483 5483 5482 5482 5482 5481 5480 5480 5479 5479 5478 5478 5478 5478 5478 5478 5478 5479 5479 5479 5479 5480 5480 5481 5482 5482 5483 5483 5484 5485 5485 5486 5487 5487 5487 5488 5488 5488 5489 5489 5490 5490 5491 5492 5492 5492 5493 5493 5494 5495 5495 5496 5497 5498 5499 5500 5501 5502 5503 5504 5505 5507 5508 5509 5510 5511 5512 5512 5513 5514 5514 5515 5516 5516 5517 5517
5482 5483 5483 5483 5483 5483 5483 5483 5483 5483 5483 5483 5483 5482 5482 5482 5481 5481 5480 5480 5479 5479 5478 5478 5478 5478 5479 5479 5479 5479 5480 5480 5481 5481 5482 5482 5483 5483 5484 5484 5485 5485 5486 5487 5487 5488 5488 5489 5489 5490 5490 5490 5491 5492 5492 5493 5493 5494 5494 5495 5495 5496 5497 5497 5498 5499 5500 5501 5502 5503 5504 5505 5506 5507 5508 5509 5510 5510 5511 5511 5512 5512 5513 5514 5514 5515 5515
5481 5482 5482 5482 5482 5482 5482 5483 5483 5483 5483 5483 5483 5482 5482 5482 5482 5481 5481 5480 5480 5479 5479 5479 5479 5479 5479 5479 5479 5480 5480 5480 5481 5481 5482 5482 5483 5483 5484 5484 5485 5485 5486 5486 5487 5487 5488 5488 5489 5489 5490 5490 5491 5491 5492 5493 5493 5494 5495 5495 5496 5496 5497 5497 5498 5499 5500 5500 5501 5502 5503 5504 5505 5506 5506 5507 5508 5509 5509 5510 5510 5511 5511 5512 5512 5513 5513
5480 5480 5481 5481 5481 5481 5482 5482 5482 5482 5482 5482 5482 5482 5482 5482 5482 5481 5481 5481 5480 5480 5480 5480 5479 5479 5479 5479 5480 5480 5480 5480 5481 5481 5482 5482 5482 5483 5483 5483 5484 5484 5485 5485 5486 5486 5487 5488 5488 5488 5489 5489 5490 5491 5491 5492 5493 5493 5494 5495 5496 5496 5497 5497 5498 5498 5499 5500 5500 5501 5502 5502 5503 5504 5505 5505 5506 5507 5508 5508 5509 5509 5509 5510 5510 5511 5511
5478 5479 5479 5480 5480 5480 5481 5481 5481 5481 5481 5482 5482 5482 5482 5481 5481 5481 5481 5481 5481 5481 5481 5480 5480 5480 5480 5480 5480 5480 5481 5481 5481 5481 5481 5481 5482 5482 5482 5483 5483 5483 5484 5484 5485 5485 5486 5486 5487 5487 5488 5488 5489 5490 5490 5491 5491 5492 5493 5493 5494 5495 5496 5496 5497 5497 5498 5499 5499 5500 5500 5501 5501 5502 5502 5503 5504 5505 5505 5506 5506 5507 5507 5507 5508 5508 5509
5476 5477 5477 5478 5479 5479 5479 5480 5480 5480 5480 5481 5481 5481 5481 5481 5481 5481 5481 5481 5481 5481 5481 5481 5481 5481 5481 5481 5481 5481 5481 5481 5481 5481 5481 5481 5481 5481 5482 5482 5482 5483 5483 5483 5484 5484 5485 5485 5486 5486 5486 5487 5488 5488 5489 5489 5490 5490 5491 5491 5492 5493 5493 5494 5495 5496 5496 5497 5497 5498 5498 5499 5499 5499 5500 5500 5501 5502 5503 5503 5504 5504 5505 5505 5505 5506 5506
5474 5474 5475 5476 5477 5477 5478 5478 5478 5479 5479 5479 5480 5480 5481 5481 5481 5481 5481 5481 5481 5481 5481 5481 5481 5481 5481 5481 5481 5481 5481 5481 5481 5481 5481 5481 5481 5481 5481 5481 5481 5482 5482 5482 5483 5483 5483 5484 5484 5485 5485 5485 5486 5486 5487 5488 5488 5488 5489 5489 5490 5490 5491 5492 5492 5493 5493 5494 5495 5495 5496 5496 5497 5497 5497 5498 5498 5499 5500 5500 5501 5501 5502 5502 5503 5503 5503
5471 5472 5473 5474 5475 5476 5476 5476 5477 5477 5477 5478 5478 5479 5479 5479 5480 5480 5480 5480 5480 5480 5480 5480 5481 5481 5481 5481 5481 5481 5481 5481 5481 5481 5481 5481 5481 5481 5481 5481 5481 5481 5481 5481 5481 5481 5481 5481 5482 5482 5482 5483 5483 5484 5484 5485 5485 5486 5486 5487 5487 5488 5488 5489 5489 5489 5490 5491 5491 5492 5492 5493 5493 5494 5494 5495 5495 5496 5496 5497 5497 5498 5499 5499 5499 5500 5500
5468 5469 5470 5471 5472 5473 5474 5474 5475 5475 5476 5476 5476 5477 5477 5478 5478 5479 5479 5479 5479 5479 5479 5479 5479 5479 5479 5479 5479 5479 5479 5479 5479 5479 5479 5479 5479 5479 5479 5479 5479 5479 5479 5479 5479 5479 5479 5479 5479 5479 5479 5480 5480 5480 5481 5481 5481 5482 5482 5483 5483 5484 5485 5485 5485 5486 5486 5487 5487 5488 5488 5489 5489 5490 5490 5491 5492 5492 5493 5493 5494 5495 5495 5496 5496 5496 5497
5465 5466 5467 5468 5469 5470 5471 5472 5473 5473 5474 5474 5475 5475 5476 5476 5477 5477 5477 5477 5478 5478 5478 5478 5478 5478 5478 5478 5478 5477 5477 5477 5477 5477 5476 5476 5476 5476 5476 5475 5475 5476 5476 5476 5476 5476 5476 5476 5476 5476 5476 5476 5476 5476 5477 5477 5477 5478 5478 5479 5479 5480 5480 5481 5481 5482 5482 5483 5483 5484 5484 5485 5485 5486 5486 5487 5488 5488 5489 5490 5490 5491 5491 5492 5492 5493 5493